When you browse on this site, cookies collect data to enhance your experience and personalize the content and advertising you see.
Visit our Privacy Policy to learn more. By continuing to use the site, you agree to this use of cookies and data.
  • In Hungary
  • List of Countries
  • For 7 days
  • Water Temperature
  • Satellite Maps
  • Weather Map
  • News
  • Weather Widgets
  • user-avatar
    Login

    Hourly Weather Kos

    Today, 20 January, Sunday

    Time Temperature Precipitation Wind Pressure Humidity
    00:00 +15°C° 0.1 mm 8 mps 767 mmHg 65%
    01:00 +15°C° 0.1 mm 8 mps 767 mmHg 65%
    02:00 +15°C° 0.1 mm 8 mps 766 mmHg 65%
    03:00 +15°C° 0.1 mm 8 mps 766 mmHg 65%
    04:00 +15°C° 0.1 mm 8 mps 766 mmHg 65%
    05:00 +15°C° 0.1 mm 8 mps 766 mmHg 65%
    06:00 +15°C° 0.1 mm 8 mps 766 mmHg 66%
    07:00 +15°C° 0.1 mm 8 mps 766 mmHg 66%
    08:00 +15°C° 0.1 mm 8 mps 766 mmHg 67%
    09:00 +15°C° 0.3 mm 8 mps 766 mmHg 69%
    10:00 +15°C° 0.3 mm 8 mps 766 mmHg 70%
    11:00 +15°C° 0.3 mm 8 mps 766 mmHg 72%
    12:00 +15°C° 1 mm 8 mps 765 mmHg 74%
    13:00 +13°C° 1 mm 8 mps 765 mmHg 77%
    14:00 +14°C° 1 mm 7 mps 764 mmHg 80%
    15:00 +14°C° 2 mm 7 mps 764 mmHg 81%
    16:00 +12°C° 2 mm 7 mps 764 mmHg 82%
    17:00 +12°C° 2 mm 7 mps 764 mmHg 84%
    18:00 +12°C° 2.9 mm 7 mps 764 mmHg 84%
    19:00 +12°C° 2.9 mm 8 mps 764 mmHg 85%
    20:00 +12°C° 2.9 mm 8 mps 764 mmHg 85%
    21:00 +12°C° 3.5 mm 8 mps 764 mmHg 85%
    22:00 +12°C° 3.5 mm 8 mps 763 mmHg 86%
    23:00 +12°C° 3.5 mm 8 mps 763 mmHg 86%

    Tomorrow, 21 January, Monday

    Time Temperature Precipitation Wind Pressure Humidity
    00:00 +12°C° 2.2 mm 7 mps 763 mmHg 84%
    01:00 +13°C° 2.2 mm 6 mps 763 mmHg 83%
    02:00 +13°C° 2.2 mm 5 mps 763 mmHg 81%
    03:00 +13°C° 0.9 mm 4 mps 763 mmHg 80%
    04:00 +13°C° 0.9 mm 3 mps 762 mmHg 79%
    05:00 +15°C° 0.9 mm 2 mps 762 mmHg 77%
    06:00 +15°C° 0.3 mm 2 mps 762 mmHg 76%
    07:00 +15°C° 0.3 mm 2 mps 763 mmHg 76%
    08:00 +15°C° 0.3 mm 2 mps 763 mmHg 75%
    09:00 +15°C° 0.1 mm 1 mps 763 mmHg 75%
    10:00 +15°C° 0.1 mm 1 mps 763 mmHg 75%
    11:00 +15°C° 0.1 mm 1 mps 764 mmHg 74%
    12:00 +15°C° 0.1 mm 1 mps 764 mmHg 75%
    13:00 +15°C° 0.1 mm 1 mps 763 mmHg 75%
    14:00 +15°C° 0.1 mm 1 mps 763 mmHg 75%
    15:00 +15°C° 0 mm 2 mps 763 mmHg 76%
    16:00 +15°C° 0 mm 2 mps 763 mmHg 76%
    17:00 +15°C° 0 mm 2 mps 763 mmHg 76%
    18:00 +14°C° 0 mm 3 mps 764 mmHg 76%
    19:00 +14°C° 0 mm 3 mps 764 mmHg 76%
    20:00 +14°C° 0 mm 3 mps 764 mmHg 76%
    21:00 +15°C° 0 mm 2 mps 765 mmHg 75%
    22:00 +15°C° 0 mm 2 mps 765 mmHg 75%
    23:00 +15°C° 0 mm 2 mps 765 mmHg 74%

    Day after tomorrow, 22 January, Tuesday

    Time Temperature Precipitation Wind Pressure Humidity
    00:00 +14°C° 0 mm 2 mps 765 mmHg 74%
    01:00 +14°C° 0 mm 1 mps 765 mmHg 74%
    02:00 +14°C° 0 mm 1 mps 765 mmHg 73%
    03:00 +14°C° 0 mm 1 mps 765 mmHg 74%
    04:00 +14°C° 0 mm 1 mps 764 mmHg 74%
    05:00 +14°C° 0 mm 1 mps 764 mmHg 74%
    06:00 +14°C° 0 mm 1 mps 764 mmHg 74%
    07:00 +14°C° 0 mm 1 mps 765 mmHg 74%
    08:00 +14°C° 0 mm 1 mps 765 mmHg 74%
    09:00 +14°C° 0.1 mm 1 mps 765 mmHg 73%
    10:00 +15°C° 0.1 mm 1 mps 765 mmHg 73%
    11:00 +15°C° 0.1 mm 1 mps 765 mmHg 72%
    12:00 +15°C° 0.1 mm 1 mps 765 mmHg 71%
    13:00 +15°C° 0.1 mm 2 mps 764 mmHg 70%
    14:00 +15°C° 0.1 mm 2 mps 764 mmHg 69%
    15:00 +15°C° 0 mm 2 mps 764 mmHg 68%
    16:00 +15°C° 0 mm 2 mps 763 mmHg 68%
    17:00 +15°C° 0 mm 2 mps 763 mmHg 67%
    18:00 +15°C° 0 mm 4 mps 763 mmHg 68%
    19:00 +15°C° 0 mm 5 mps 763 mmHg 69%
    20:00 +15°C° 0 mm 6 mps 763 mmHg 70%
    21:00 +15°C° 0 mm 6 mps 763 mmHg 71%
    22:00 +15°C° 0 mm 7 mps 763 mmHg 71%
    23:00 +15°C° 0 mm 8 mps 763 mmHg 72%

    23 January, Wednesday

    Time Temperature Precipitation Wind Pressure Humidity
    00:00 +15°C° 0 mm 8 mps 763 mmHg 73%
    01:00 +16°C° 0 mm 8 mps 762 mmHg 74%
    02:00 +16°C° 0 mm 9 mps 762 mmHg 74%
    03:00 +16°C° 0.4 mm 9 mps 762 mmHg 75%
    04:00 +16°C° 0.4 mm 9 mps 762 mmHg 75%
    05:00 +16°C° 0.4 mm 10 mps 761 mmHg 76%
    06:00 +16°C° 0.8 mm 10 mps 761 mmHg 75%
    07:00 +16°C° 0.8 mm 10 mps 762 mmHg 75%
    08:00 +16°C° 0.8 mm 10 mps 762 mmHg 75%
    09:00 +16°C° 0.8 mm 10 mps 762 mmHg 75%
    10:00 +16°C° 0.8 mm 11 mps 762 mmHg 75%
    11:00 +16°C° 0.8 mm 11 mps 762 mmHg 75%
    12:00 +16°C° 0.8 mm 11 mps 761 mmHg 76%
    13:00 +16°C° 0.8 mm 11 mps 760 mmHg 76%
    14:00 +15°C° 0.8 mm 12 mps 760 mmHg 77%
    15:00 +15°C° 0.7 mm 12 mps 759 mmHg 77%
    16:00 +15°C° 0.7 mm 12 mps 759 mmHg 77%
    17:00 +14°C° 0.7 mm 12 mps 759 mmHg 77%
    18:00 +15°C° 0.3 mm 13 mps 759 mmHg 75%
    19:00 +15°C° 0.3 mm 13 mps 759 mmHg 74%
    20:00 +15°C° 0.3 mm 14 mps 759 mmHg 73%
    21:00 +15°C° 0.1 mm 14 mps 759 mmHg 72%
    22:00 +15°C° 0.1 mm 14 mps 758 mmHg 72%
    23:00 +15°C° 0.1 mm 15 mps 758 mmHg 71%

    24 January, Thursday

    Time Temperature Precipitation Wind Pressure Humidity
    00:00 +15°C° 0.1 mm 15 mps 757 mmHg 72%
    01:00 +15°C° 0.1 mm 15 mps 757 mmHg 72%
    02:00 +15°C° 0.1 mm 16 mps 756 mmHg 73%
    03:00 +15°C° 0.9 mm 16 mps 755 mmHg 74%
    04:00 +15°C° 0.9 mm 17 mps 755 mmHg 75%
    05:00 +15°C° 0.9 mm 17 mps 754 mmHg 76%
    06:00 +15°C° 1 mm 18 mps 754 mmHg 75%
    07:00 +15°C° 1 mm 18 mps 753 mmHg 74%
    08:00 +15°C° 1 mm 19 mps 753 mmHg 73%
    09:00 +15°C° 1 mm 19 mps 753 mmHg 73%
    10:00 +15°C° 1 mm 20 mps 752 mmHg 73%
    11:00 +15°C° 1 mm 20 mps 752 mmHg 72%
    12:00 +15°C° 2.5 mm 19 mps 752 mmHg 73%
    13:00 +15°C° 2.5 mm 18 mps 751 mmHg 74%
    14:00 +15°C° 2.5 mm 17 mps 751 mmHg 75%
    15:00 +15°C° 1.2 mm 14 mps 751 mmHg 72%
    16:00 +16°C° 1.2 mm 10 mps 752 mmHg 70%
    17:00 +16°C° 1.2 mm 6 mps 753 mmHg 68%
    18:00 +16°C° 0 mm 6 mps 753 mmHg 67%
    19:00 +16°C° 0 mm 5 mps 754 mmHg 66%
    20:00 +16°C° 0 mm 5 mps 755 mmHg 66%
    21:00 +16°C° 0.3 mm 6 mps 755 mmHg 67%
    22:00 +16°C° 0.3 mm 7 mps 756 mmHg 68%
    23:00 +16°C° 0.3 mm 8 mps 756 mmHg 68%

    25 January, Friday

    Time Temperature Precipitation Wind Pressure Humidity
    00:00 +16°C° 0.2 mm 8 mps 756 mmHg 68%
    01:00 +16°C° 0.2 mm 9 mps 756 mmHg 68%
    02:00 +16°C° 0.2 mm 9 mps 756 mmHg 67%
    03:00 +16°C° 0.4 mm 10 mps 756 mmHg 67%
    04:00 +16°C° 0.4 mm 10 mps 756 mmHg 67%
    05:00 +16°C° 0.4 mm 10 mps 756 mmHg 67%
    06:00 +16°C° 0.1 mm 10 mps 756 mmHg 66%
    07:00 +16°C° 0.1 mm 11 mps 756 mmHg 65%
    08:00 +16°C° 0.1 mm 11 mps 757 mmHg 65%
    09:00 +15°C° 0.2 mm 12 mps 757 mmHg 64%
    10:00 +15°C° 0.2 mm 13 mps 756 mmHg 64%
    11:00 +17°C° 0.2 mm 13 mps 756 mmHg 63%
    12:00 +17°C° 0.1 mm 14 mps 756 mmHg 63%
    13:00 +17°C° 0.1 mm 14 mps 755 mmHg 63%
    14:00 +17°C° 0.1 mm 15 mps 754 mmHg 63%
    15:00 +17°C° 0.3 mm 15 mps 754 mmHg 63%
    16:00 +16°C° 0.3 mm 16 mps 753 mmHg 63%
    17:00 +15°C° 0.3 mm 17 mps 753 mmHg 63%
    18:00 +15°C° 1.5 mm 16 mps 753 mmHg 67%
    19:00 +14°C° 1.5 mm 16 mps 753 mmHg 72%
    20:00 +13°C° 1.5 mm 15 mps 753 mmHg 77%
    21:00 +13°C° 0.4 mm 14 mps 754 mmHg 72%
    22:00 +13°C° 0.4 mm 13 mps 754 mmHg 67%
    23:00 +14°C° 0.4 mm 12 mps 755 mmHg 63%
    Show more